Location: Cantaing
(50.1487°N, 3.1675°E)
Time: 11:14:51
(UTC+00:00)

ATLAS 2AS CENTAUR R/B - Pass Details

Date: 14 January 2026
Orbit: 1050 x 1161 km, 63.7° (Epoch: 10 February)

Event Time Altitude Azimuth Distance (km) Brightness Sun altitude
Exits shadow 06:10:30 14° 315° (NW) 2,562 4.2 -14.0°
Maximum altitude 06:16:23 79° 231° (SW) 1,074 2.6 -13.1°
Drops below altitude 10° 06:23:08 10° 146° (SE) 2,866 5.8 -12.1°
Sets 06:25:46 0° 145° (SE) 3,824 6.6 -11.7°
